Regional Weather Roundup
Issued by NWS

Home | Current Version | Previous Version | Text Only | Print | Product List | Glossary On
Versions: 1 2 3 4 5 6 7 8 9 10 11 12 13 14 15 16 17 18 19 20 21 22 23 24 25 26 27
000
ASUS45 KBOU 191806
RWRCO

WEATHER ROUNDUP FOR COLORADO
NATIONAL WEATHER SERVICE DENVER/BOULDER CO
1200 PM MDT SAT APR 19 2014

NOTE: "FAIR" INDICATES FEW OR NO CLOUDS BELOW 12000 FEET WITH NO
SIGNIFICANT WEATHER AND/OR OBSTRUCTIONS TO VISIBILITY.

COZ001>005-013-030-031-191900-
...NORTHWEST COLORADO...

CITY           SKY/WX    TMP DP  RH WIND       PRES   REMARKS
CRAIG          LGT RAIN  56  37  49 S12       30.12R
HAYDEN         CLOUDY    54  36  50 NW7       30.15S
MEEKER         LGT RAIN  54  39  57 W14       30.13S
MOUNT WERNER   CLOUDY    41  27  56 W5        30.28S
STEAMBOAT SPGS CLOUDY    55  28  35 NW6       30.13S
WALDEN         CLOUDY    52  28  40 SW10G22   30.15F
$$

COZ006>008-011-191900-
...WEST CENTRAL VALLEYS...

CITY           SKY/WX    TMP DP  RH WIND       PRES   REMARKS
GRAND JUNCTION CLOUDY    57  47  69 NW7       30.11F
MONTROSE       CLOUDY    58  40  51 NW9       30.13F
EAGLE          MOSUNNY   57  34  41 CALM      30.12F
RIFLE          CLOUDY    56  39  53 W22       30.10S
DELTA          CLOUDY    62  40  45 NW3       30.12F
NUCLA            N/A     55  41  58 CALM      30.17S
$$

COZ017>023-064>068-191900-
...SOUTHWEST COLORADO...

CITY           SKY/WX    TMP DP  RH WIND       PRES   REMARKS
DURANGO        PTSUNNY   54  37  52 CALM      30.18R
CORTEZ         PTSUNNY   61  41  47 S10       30.14S
PAGOSA SPRINGS CLOUDY    52  34  50 CALM      30.21S
TELLURIDE      CLOUDY    48  32  53 SE5       30.21F
WOLF CREEK PAS SNOW      28  28 100 SW16G24   30.33R VSB<1/4 WCI  17
$$

COZ009-010-012-014-032>034-037-058>063-191900-
...CENTRAL COLORADO...

CITY           SKY/WX    TMP DP  RH WIND       PRES   REMARKS
ASPEN          PTSUNNY   55  32  41 VRB3      30.12F
BUENA VISTA    LGT RAIN  51  35  52 S16       30.15S
COPPER MTN     PTSUNNY   41  27  56 SE9       30.29F
BERTHOUD PASS  CLOUDY    28  19  69 MISG      30.33S
COTTONWOOD PAS MOSUNNY   50  32  50 SE20G25   30.21F
GUNNISON       PTSUNNY   54  30  40 S7        30.19F
KREMMLING      CLOUDY    54  32  43 W5        30.16F
LEADVILLE      PTSUNNY   44  25  47 VRB5      30.19F
MONARCH PASS   MOSUNNY   37  28  70 S15       30.41S
SALIDA         MOSUNNY   60  31  33 S14G22    30.19F
SUNLIGHT       CLOUDY    37  32  81 CALM      30.28S
WILKERSON PASS CLOUDY    37  28  70 CALM      30.31F
$$

COZ069>075-191900-
...SAN LUIS VALLEY/SANGRE DE CRISTO MOUNTAINS...

CITY           SKY/WX    TMP DP  RH WIND       PRES   REMARKS
ALAMOSA        MOSUNNY   60  30  32 SW12      30.15F
LA VETA PASS   MOSUNNY   46  28  49 SW15G23   30.25S
SAGUACHE       MOSUNNY   57  32  38 S6        30.17S
$$

COZ035-036-038>040-191900-
...NORTHERN COLORADO FRONT RANGE...

CITY           SKY/WX    TMP DP  RH WIND       PRES   REMARKS
DENVER INTL AP CLOUDY    60  35  39 E7        30.08F
DMNS CITY PARK   N/A     61  34  36 E10       30.07S
AURORA         CLOUDY    59  36  41 E10       30.09R
FRONT RANGE AP CLOUDY    63  37  39 NE5       30.10
ERIE MUNI ARPT CLOUDY    60  36  41 CALM      30.08S
BOULDER MUN AP CLOUDY    57  37  47 NE3       30.08S
CENTENNIAL     CLOUDY    60  34  37 E9        30.09S
BROOMFIELD     NOT AVBL
FORT COLLINS   CLOUDY    57  37  47 S7        30.10F
LONGMONT       CLOUDY    63  35  36 E5        30.09F
$$

COZ041-046-047-076>085-087-088-191900-
...PIKES PEAK/PALMER DIVIDE AND SOUTHERN FOOTHILLS...

CITY           SKY/WX    TMP DP  RH WIND       PRES   REMARKS
COLO. SPRINGS  CLOUDY    65  29  25 E13       30.08F
A. F. ACADEMY  MOSUNNY   60  29  30 CALM      30.09F
ELLICOTT       NOT AVBL
FALCON         CLOUDY    62  29  29 NE12      30.12F
FORT CARSON    CLOUDY    66  31  27 N6        30.06S
LIMON          CLOUDY    66  34  30 N18G26    30.05F
MONUMENT HILL  CLOUDY    55  32  41 NE9       30.12F
TRINIDAD       SUNNY     70  30  22 NE8       30.03F
$$

COZ042>045-048>051-090-091-191900-
...NORTHEAST COLORADO...

CITY           SKY/WX    TMP DP  RH WIND       PRES   REMARKS
GREELEY ARPT   PTSUNNY   61  39  44 SE6       30.09F
AKRON          PTSUNNY   61  42  49 N14G21    30.06R
BURLINGTON     PTSUNNY   68  43  40 N21G29    30.00S
WRAY           MOSUNNY   64  43  45 NE13G18   30.03R
STERLING       PTSUNNY   59  41  51 E12       30.06R
HOLYOKE        MOSUNNY   61  37  41 NE18      30.03F
FORT MORGAN    PTSUNNY   58  38  47 E7        30.09S
$$

COZ086-089-092>099-191900-
...SOUTHEAST COLORADO...

CITY           SKY/WX    TMP DP  RH WIND       PRES   REMARKS
PUEBLO         MOSUNNY   72  31  22 SE16      29.99F
LA JUNTA       SUNNY     73  33  23 VRB3      29.96F
LAMAR          SUNNY     77  35  21 W12       29.93F
SPRINGFIELD      N/A     74  37  26 SW8G20    29.98F
$$



USA.gov is the U.S. government's official web portal to all federal, state and local government web resources and services.